User: anonymous   Login
Location: Killam
(52.7910°N, 111.8608°W)
Time: 14:27:30
(UTC+00:00)
Language:

Oscar 11 - Orbit

View from above orbital plane
View from above orbital plane
View from above satellite
View from above satellite

Ground track
Ground track

The orbit is defined by the following mean orbital elements,

1 14781U          26074.17847501 +.00000000 +00000-0 +19671-3 0 00003
2 14781  97.7955  40.8755 0008762 127.6246 232.5769 14.90527996    01
Epoch (UTC): 15 March 2026 04:17:00
Eccentricity: 0.0008762
inclination: 97.7955°
perigee height: 590 km
apogee height: 602 km
right ascension of ascending node: 40.8755°
argument of perigee: 127.6246°
revolutions per day: 14.90527996
mean anomaly at epoch: 232.5769°

The dashed part of the orbit path shows where the satellite is in the earth's shadow,  

DLR